www.pogodaiklimat.ru

Погода и климат >> Архив погоды >> Россия >> Хабаровский край >> Сегжема


ПОГОДА в Сегжеме

  • Прогноз погоды в Сегжеме
  • Монитор погоды в Сегжеме

АРХИВ ПОГОДЫ в Сегжеме

Время (UTC), дата Ветер
(напр.,м/с)
 
Видим.   Явления Облачность Т
(С)
Тd
(С)
f
(%)
Тe
(С)
Тes
(С)
Комфортность P
(гПа)
Po
(гПа)
Тmin
(С)
Tmax
(С)
R
(мм)
R24
(мм)
S
(см)
15 13.07 штиль 0 50 км 10/10 600 м
[Sc diur, vesp]
+17.4 +16.2 93 +17 +17 1008.0 985.6
18 13.07 штиль 0 50 км 10/10 600 м
[Cb cap]
+16.4 +14.3 87 +16 +16 1008.2 985.7
21 13.07 В 1 50 км 10/10 600 м
[Cb cap]
+16.6 +14.5 87 +17 +17 1008.8 986.3 +16.4
00 14.07 Ю 3 50 км 9/8 600 м
[Sc diur, vesp Ac cuf]
+20.8 +15.1 70 +24 +26 комфорт 1008.3 986.2 +16.4
03 14.07 В 3 50 км 9/8 600 м
[Sc diur, vesp Ac cuf]
+22.9 +14.8 60 +27 +28 душно 1008.2 986.2
06 14.07 Ю 1 50 км 10/10 600 м
[Sc diur, vesp]
+24.8 +16.7 61 +28 +28 жарко 1007.5 985.7
09 14.07 СВ 1 50 км 6/3 600 м
[Sc diur, vesp Ac cast]
+23.4 +17.8 71 +29 +30 душно 1007.6 985.7 +24.8
12 14.07 СВ 2 50 км 5/3 600 м
[Sc diur, vesp Ac lent]
+18.5 +14.4 77 +20 +20 1010.1 987.6
15 14.07 В 3 50 км 9/0
[Ac trans]
+17.2 +14.4 84 +17 +17 1010.9 988.3
21 14.07 СВ 1 50 км 10/0
[As op]
+16.6 +14.2 86 +17 +18 1012.0 989.4 +16.6
00 15.07 В 2 50 км 8/3 600 м
[Sc Ac trans]
+20.9 +15.0 69 +25 +29 комфорт 1011.9 989.7 +16.6
06 15.07 В 2 50 км 8/8 600 м
[Cb cap]
+27.5 +14.6 45 +30 +32 жарко 1009.8 988.1
09 15.07 штиль 0 50 км 6/3 600 м
[Cb cap Ci fib]
+26.9 +17.6 57 +31 +32 душно 1008.8 987.1 +29.4
12 15.07 штиль 0 50 км 3/0
[Ci fib]
+18.8 +17.5 92 +20 +20 1010.9 988.5
18 15.07 штиль 0 50 км 5/0
[Ci sp]
+15.1 +14.2 94 +15 +15 1012.4 989.7
21 15.07 СВ 1 50 км 10/0
[Cs]
+15.3 +14.2 93 +16 +18 1012.8 990.1 +13.8
00 16.07 ЮВ 1 50 км 8/3 600 м
[Sc Ac trans Ci sp]
+20.3 +16.7 80 +24 +31 комфорт 1012.1 989.8 +13.8
03 16.07 З 3 50 км 5/3 600 м
[Cb cap Ci fib]
+27.9 +15.7 47 +31 +40 душно 1009.9 988.2
06 16.07 З 3 50 км 8/4 600 м
[Cb cap Ci fib]
+27.5 +17.5 54 +32 +36 очень
душно
1007.9 986.3
09 16.07 З 2 50 км 5/4 600 м
[Cb cap Ci fib]
+27.1 +17.4 55 +31 +32 душно 1007.6 985.9 +30.5
12 16.07 штиль 0 50 км 8/5 600 м
[Cb cap Ci fib]
+19.3 +18.2 93 +21 +21 комфорт 1010.1 987.8
15 16.07 штиль 0 50 км ясно +16.8 +16.1 96 +17 +17 1010.2 987.6
18 16.07 штиль 0 50 км ясно +14.6 +14.2 97 +14 +14 1010.6 987.8
21 16.07 штиль 0 500 м туман ?/? +15.4 +14.9 97 +15 +15 1010.0 987.4 +14.2
00 17.07 штиль 0 50 км {туман} 5/5 600 м
[Cb cap Ac cuf]
+23.6 +17.9 70 +28 +36 душно 1008.3 986.4 +14.2
03 17.07 ЮЗ 1 50 км 6/5 600 м
[Cb cap Ci fib]
+26.2 +19.4 66 +32 +41 очень
душно
1007.1 985.4
06 17.07 З 2 50 км в посл. час ливневой дождь 6/3 600 м
[Cb cap Ac cuf Ci fib]
+28.0 +17.6 53 +32 +38 душно 1004.2 983.2
09 17.07 З 3 50 км {ливн. осадки} 9/9 600 м
[Cb cap]
+25.5 +21.4 78 +32 +32 очень
душно
1004.7 982.9 +28.0 0.7
12 17.07 штиль 0 50 км {ливн. осадки} 3/3 600 м
[Cb cap]
+19.2 +16.6 85 +21 +21 комфорт 1006.4 984.1
15 17.07 штиль 0 50 км ясно +18.6 +17.5 93 +20 +20 1006.2 983.9
18 17.07 штиль 0 500 м туман ?/? +16.4 +15.7 96 +16 +16 1005.4 982.9
21 17.07 штиль 0 500 м туман ?/? +16.2 +15.9 98 +16 +16 1005.4 982.9 +16.2 0.5
00 18.07 штиль 0 20 км в посл. час туман 8/3 600 м
[Sc diur, vesp Ac cuf]
+21.3 +17.3 78 +25 +31 комфорт 1003.4 981.5 +16.2
03 18.07 штиль 0 50 км 9/3 600 м
[Cb cap Ac cuf Ci]
+23.8 +18.4 72 +28 +37 душно 1002.3 980.5
06 18.07 СВ 1 50 км 9/6 600 м
[Cb cap As op]
+22.3 +20.0 87 +28 +30 душно 1001.6 979.7
09 18.07 ЮВ 1 50 км в посл. час ливневой дождь 8/0
[Ac cuf]
+22.0 +20.6 92 +28 +29 душно 1001.9 980.0 +23.8 0.6
12 18.07 штиль 0 50 км {ливн. осадки} 5/3 600 м
[Cb cap Ci]
+16.7 +15.9 95 +17 +17 1003.1 980.8
15 18.07 СЗ 1 50 км 10/10 600 м
[Cb cap]
+17.6 +16.9 96 +19 +19 1003.3 981.1
18 18.07 штиль 0 50 км {ливн. осадки} 10/10 600 м
[Cb cap]
+17.6 +17.0 96 +18 +18 1003.0 980.8
21 18.07 штиль 0 10 км слаб. дождь 10/0
[As op]
+18.2 +17.5 96 +19 +19 1003.9 981.8 +16.6 2
00 19.07 СВ 1 20 км {ливн. осадки, дождь} 10/8 600 м
[Cb cap As trans]
+19.4 +19.0 98 +23 +24 комфорт 1004.5 982.4
09 19.07 штиль 0 50 км 6/6 600 м
[Cb cap]
+23.1 +22.3 95 +32 +32 очень
душно
1004.9 983.2 +26.2 4
21 19.07 штиль 0 50 км 10/10 600 м
[Cb cap]
+18.6 +18.6 100 +20 +20 1010.2 988.0 +17.3
09 20.07 З 1 50 км 8/8 600 м
[Cb cap Ci fib]
+27.8 +19.8 62 +34 +34 очень
душно
1009.0 987.4 +30.3
12 20.07 штиль 0 50 км {метель} 8/6 600 м
[Cb cap Ac trans]
+20.6 +20.6 100 +25 +25 комфорт 1010.9 988.8

 

Местоположение метеостанции Сегжема (Хабаровский край, Россия): широта 50.35 долгота 138.40 высота над уровнем моря 193 м.

В архиве по умолчанию представлена погода в Сегжеме за последнюю неделю. Архивные данные за месяц целиком и за предыдущие месяцы, начиная с января 2011 года, Вы можете получить, выбрав интересующий диапазон дат из раскрывающегося списка и нажав кнопку "Ввод!".


*Определитесь, кто Вы:
робот инопланетянин человек

Внимание! Время в таблицах - всемирное. Для получения местного времени необходимо прибавить поправку, которая равна 10 ч.

Смотрите также архив погоды в соседних городах и на ближайших метеорологических станциях:

Погода в Нижнетамбовском (Хабаровский край, Россия) (67 км)
Погода в Комсомольске-на-Амуре (Хабаровский край, Россия) (101 км)
Погода в Амурске (Хабаровский край, Россия) (119 км)
Погода в Циммермановка (Хабаровский край, Россия) (123 км)
Погода в Солекуль (Хабаровский край, Россия) (134 км)
Погода в Мопау (Хабаровский край, Россия) (138 км)
Погода в Тумнине (Хабаровский край, Россия) (138 км)
Погода в Горине (Хабаровский край, Россия) (147 км)
Погода в Троицком (Хабаровский край, Россия) (166 км)
Погода в Мариинском (Хабаровский край, Россия) (194 км)

Пояснения к столбцам:

Ветер - указаны скорость ветра в м/с - средняя за 10 мин, порывы в срок и между сроками (в фигурных скобках) и направление, откуда дует ветер: С - северный, СВ - северо-восточный, В - восточный, ЮВ - юго-восточный, Ю - южный, ЮЗ - юго-западный, З - западный, СЗ - северо-западный.
Видимость - горизонтальная дальность видимости в метрах или километрах. При видимости от 1 до 10 км при отсутствии осадков обычно наблюдается дымка, при ухудшении видимости до 1 км и менее - туман. В сухую погоду видимость может ухудшаться дымом, пылью или мглою.
Явления - указаны атмосферные явления, наблюдавшиеся в срок или в последний час перед сроком; фигурными скобками обозначены явления, наблюдавшиеся между сроками (за 1-3 часа до срока); квадратными скобками обозначены град или гололедные отложения с указанием их диаметра в мм.
Облачность - указаны через наклонную черту общая и нижняя облачность в баллах и высота нижней границы облаков в метрах; квадратными скобками обозначены формы облаков: Ci - перистые, Cs - перисто-слоистые, Cc - перисто-кучевые, Ac - высококучевые, As - высокослоистые, Sc - слоисто-кучевые, Ns - слоисто-дождевые, Cu - кучевые, Cb - кучево-дождевые. Подробнее классификацию облаков см. в Атласе облаков (PDF).
T - Температура воздуха - температура, измеренная на высоте 2 м над землей.
Td - Температура точки росы - температура, при понижении до которой содержащийся в воздухе водяной пар достигнет насыщения.
f - Относительная влажность воздуха - влажноcть воздуха, измеренная на высоте 2 м над землей.
Te - Эффективная температура - температура, которую ощущает одетый по сезону человек в тени. Характеристика душности погоды. При расчете учитывается влияние влажности воздуха и скорости ветра на теплоощущения человека.
Tes - Эффективная температура на солнце - температура, которую ощущает человек, с поправкой на солнечный нагрев. Характеристика знойности погоды. Зависит от высоты солнца над горизонтом, облачности и скорости ветра. Ночью, в пасмурную погоду, а также при ветре 12 м/с и более поправка равна нулю.
P - Атмосферное давление - приведенное к уровню моря атмосферное давление.
Po - Атмосферное давление - измеренное на уровне метеостанции атмосферное давление.
Tmin - Минимальная температура - минимум температуры воздуха на высоте 2 м над землей.
Tmax - Максимальная температура - максимум температуры воздуха на высоте 2 м над землей.
R - Количество осадков - Количество выпавших осадков за период времени, мм. При наведении курсора мыши на число - период времени, за который выпало указанное количество осадков.
R24 - Количество осадков - Количество выпавших осадков за 24 часа, мм.
S - Снежный покров - Высота снежного покрова, см. При наведении курсора мыши на число - состояние снежного покрова и степень покрытия местности в баллах.